Location: Newark
(47.5783°N, 6.7622°E)
Time: 00:23:32
(UTC+00:00)

Tiros 1 despin weight - Visible Passes

Search period start: 29 February 2020 00:00
Search period end: 10 March 2020 00:00
Orbit: 594 x 642 km, 48.2° (Epoch: 28 February)

Date Brightness Start Highest point End Pass type
(mag) Time Alt. Az. Time Alt. Az. Time Alt. Az.
03 Mar ? 19:04:10 10° S 19:05:35 15° SSE 19:05:35 15° SSE visible
04 Mar ? 19:19:25 10° SSW 19:22:10 25° S 19:22:10 25° S visible
05 Mar ? 17:57:05 10° SSE 17:58:53 12° SE 18:00:41 10° ESE visible
05 Mar ? 19:35:18 10° SW 19:38:37 37° S 19:38:37 37° S visible
06 Mar ? 18:11:34 10° S 18:15:02 21° SE 18:17:52 13° E visible
06 Mar ? 19:51:32 10° WSW 19:54:57 47° SW 19:54:57 47° SW visible
07 Mar ? 18:27:08 10° SSW 18:31:18 34° SSE 18:34:05 18° E visible
07 Mar ? 20:08:00 10° WSW 20:11:10 44° WSW 20:11:10 44° WSW visible
08 Mar ? 18:43:11 10° SW 18:47:40 53° SSE 18:50:12 24° E visible
08 Mar ? 20:24:34 10° W 20:27:16 35° W 20:27:16 35° W visible
09 Mar ? 18:59:32 10° WSW 19:04:08 74° SSE 19:06:14 31° E visible
09 Mar ? 20:41:10 10° W 20:43:18 27° W 20:43:18 27° W visible
